Regional Weather Roundup
Issued by NWS

Home | Current Version | Previous Version | Graphics & Text | Print | Product List | Glossary Off
Versions: 1 2 3 4 5 6 7 8 9 10 11 12 13 14 15 16 17 18 19 20 21 22 23 24 25 26 27 28 29 30 31 32 33 34 35 36 37 38 39 40 41 42 43 44 45 46 47 48 49 50

823
ASUS43 KTOP 082208
RWRKS

WEATHER ROUNDUP FOR KANSAS
NATIONAL WEATHER SERVICE GOODLAND KS
400 PM CST MON FEB 08 2016

NOTE:  "FAIR" INDICATES FEW OR NO CLOUDS BELOW 12,000 FEET WITH NO
SIGNIFICANT WEATHER AND/OR OBSTRUCTIONS TO VISIBILITY.

KSZ001>006-013>018-027>032-041>047-082300-
NORTHWEST KANSAS

CITY           SKY/WX    TMP DP  RH WIND       PRES   REMARKS
GOODLAND       CLOUDY    37  21  52 N21G28    30.28S WCI  26
HAYS           CLOUDY    39  14  35 NW30G37   30.27F WCI  27
HILL CITY      CLOUDY    38  18  44 NW14G25   30.28S WCI  30
RUSSELL        MOSUNNY   38  19  46 NW29G35   30.25S WCI  26
$$

KSZ061>065-074>080-084>089-082300-
SOUTHWEST KANSAS

CITY           SKY/WX    TMP DP  RH WIND       PRES   REMARKS
DODGE CITY     MOSUNNY   42   1  18 N26G36    30.30F
ELKHART          N/A     49  19  30 NW15        N/A
GARDEN CITY    CLOUDY    45   5  19 N24G32    30.31F
GREAT BEND     PTSUNNY   39  14  35 NW26G33   30.26F WCI  28
LIBERAL        SUNNY     48  10  21 N24G30    30.31F
PRATT          MOSUNNY   39   9  28 N25G38    30.26S WCI  28
$$

KSZ066>073-081>083-090>101-082300-
SOUTHEAST KANSAS

CITY           SKY/WX    TMP DP  RH WIND       PRES   REMARKS
CHANUTE        PTSUNNY   40  15  36 NW22G33   30.12R WCI  30
COFFEYVILLE    SUNNY     43  13  29 NW31G40   30.14R
HUTCHINSON     SUNNY     43  11  27 N28G39    30.21S
MEDICINE LODGE   N/A     44  10  25 NW18G37   30.24S
NEWTON         SUNNY     41  12  30 NW31G44   30.20R
PARSONS        MOSUNNY   43  14  31 N29G39    30.13R
WICHITA INTL   MOSUNNY   44  11  26 NW33G45   30.20R
WICHITA JABRA  SUNNY     42  12  29 NW35G48   30.19R
WICHITA MCCONL SUNNY     43  11  27 N26G39    30.18F
WINFIELD       SUNNY     45  12  26 NW29G39   30.21R
$$

KSZ007>012-019>026-033>040-048>060-102>105-082300-
NORTHEAST KANSAS

CITY           SKY/WX    TMP DP  RH WIND       PRES   REMARKS
CONCORDIA      SUNNY     38  17  42 NW28G38   30.18R WCI  26
EMPORIA        MOSUNNY   39  12  33 NW32G40   30.13R WCI  27
LAWRENCE       CLOUDY    35  16  45 NW24G37   30.10R WCI  23
MANHATTAN      SUNNY     39  14  36 N15G28    30.17S WCI  31
MARYSVILLE     SUNNY     36  19  51 N26G36    30.13R WCI  23
OLATHE IND     CLOUDY    33  18  53 NW24G35   30.08R WCI  20
OLATHE EXE     CLOUDY    33  15  47 NW22G37   30.06R WCI  21
SALINA         SUNNY     43  14  31 NW33G43   30.20S
TOPEKA BILLARD PTSUNNY   37  14  38 NW30G37   30.12S WCI  24
TOPEKA FORBES  MOSUNNY   38  16  40 N25G35    30.10S WCI  27
$$




USA.gov is the U.S. government's official web portal to all federal, state and local government web resources and services.